Wind_Speed
69 71 74 77 79 79 78 76 77 78 80 83 84 80 78 79 81 79 80 81 79 78 79 78 79 79 80 81 81 82 82 80 77 81 82 83 76 77 73 70 67 63 59
77 79 80 82 82 79 80 82 85 88 91 93 91 90 89 85 85 87 87 86 87 88 88 87 86 86 86 87 89 90 91 90 87 85 88 89 85 81 80 73 70 69 59
84 84 84 83 82 84 88 92 94 95 95 96 99 97 94 91 91 93 95 96 95 91 90 90 90 88 89 91 92 93 94 95 95 94 95 99 96 90 86 82 75 72 63
89 89 88 88 90 92 93 96 98 99 99 98 100 102 105 107 103 100 98 96 93 91 88 86 87 87 89 89 89 88 88 87 87 87 91 96 99 97 94 88 82 74 65
93 94 94 94 96 98 100 100 101 100 102 107 109 108 106 104 102 97 93 89 85 84 85 85 85 84 87 88 82 78 73 71 73 74 77 82 89 95 93 88 81 73 67
100 99 101 102 103 103 103 102 104 107 108 106 103 98 93 92 91 88 84 78 77 76 76 77 78 78 84 81 66 64 69 71 74 80 73 72 78 83 88 86 77 68 67
107 108 107 105 102 102 104 108 107 95 88 83 79 77 76 76 77 78 76 73 72 70 69 68 70 69 66 65 65 67 74 78 73 75 71 66 67 73 78 81 73 64 59
105 104 102 99 101 103 93 85 79 75 72 71 70 67 66 69 71 72 73 71 66 64 63 61 63 67 70 67 71 77 80 78 72 68 62 59 58 65 66 74 69 63 62
84 81 81 80 76 73 70 67 66 64 63 59 57 56 56 59 62 65 68 68 67 71 71 68 65 68 72 73 75 75 76 68 62 55 57 50 53 61 60 65 65 66 70
66 66 64 64 62 59 58 57 51 50 54 58 61 64 67 69 72 73 76 77 78 81 80 75 72 71 74 77 74 68 63 54 43 41 46 45 45 54 57 63 66 69 71
49 49 48 47 47 45 43 47 53 59 62 63 65 69 72 74 76 79 79 77 79 79 72 63 59 63 64 66 64 59 50 30 29 32 37 41 47 51 54 60 63 64 65
32 32 32 33 38 44 49 54 57 61 66 70 74 76 78 76 73 72 69 67 63 60 55 52 50 56 57 54 52 47 28 23 25 31 35 37 40 39 49 50 65 59 62
21 26 33 38 40 44 50 56 63 68 72 77 78 75 74 70 67 64 61 57 52 50 50 50 53 53 52 45 42 36 21 17 23 27 35 40 38 50 49 59 56 58 55
26 27 29 36 44 51 56 62 66 69 67 68 66 64 62 60 57 54 53 50 47 44 44 45 46 46 44 38 35 30 21 11 17 30 35 41 44 47 42 37 39 50 53
21 28 36 44 51 56 61 63 62 61 59 59 55 54 51 50 49 47 44 38 34 33 33 36 38 38 36 36 33 30 18 8 17 28 29 33 28 26 31 34 39 48 52
23 33 43 49 55 58 60 60 55 51 50 48 46 44 43 40 34 32 29 27 25 25 27 31 34 32 36 35 34 33 19 16 17 26 26 24 26 27 34 39 36 40 41
30 40 47 52 54 57 57 51 46 40 39 39 37 34 31 25 24 24 22 22 22 24 28 30 31 34 44 41 37 39 28 19 21 21 24 25 28 31 32 35 19 27 35
37 43 49 48 51 52 50 44 39 35 32 30 27 25 21 18 17 19 20 23 24 27 30 32 37 41 48 46 42 35 29 26 25 28 28 26 26 25 13 9 19 25 33
41 46 47 48 47 45 41 36 33 29 24 22 20 19 14 12 15 16 20 24 28 31 32 37 44 48 47 45 41 37 36 34 30 31 32 27 28 20 11 21 23 34 29
45 44 44 45 42 38 32 28 23 17 15 14 12 10 7 7 9 13 20 23 29 33 35 44 49 52 49 44 45 43 43 41 39 33 30 31 30 31 25 28 33 23 24
49 48 49 48 41 33 27 21 17 14 11 8 7 5 2 3 7 10 16 19 24 28 32 50 53 53 49 50 49 45 43 42 40 44 44 39 31 32 31 36 27 19 44
52 55 50 47 40 32 27 21 19 17 14 10 7 4 4 1 7 12 14 15 20 25 35 46 55 56 53 50 49 46 46 43 43 45 45 43 41 40 38 28 15 44 48
52 56 51 48 43 34 30 24 20 20 16 12 9 7 6 3 11 12 13 15 18 19 23 35 46 52 56 57 56 51 49 49 43 44 48 43 35 29 22 16 42 49 50
52 58 56 51 46 37 29 27 21 19 17 15 13 11 8 9 10 11 11 12 14 17 20 26 33 45 53 56 52 53 56 58 57 43 39 30 28 18 20 40 55 53 53
54 57 60 56 49 42 32 29 26 23 19 18 17 14 11 9 10 11 14 17 19 22 25 24 28 31 41 42 46 45 42 40 40 36 25 13 18 25 44 56 56 55 55
54 57 59 59 57 44 38 32 28 25 23 21 19 18 15 10 7 8 12 15 19 20 22 24 22 20 24 26 27 26 24 27 23 16 20 26 38 50 52 52 56 56 53
Wind_Direction
268 271 273 276 279 281 283 285 286 287 285 282 282 282 280 280 280 279 279 278 277 275 274 271 270 268 266 265 264 264 263 261 257 261 264 265 261 263 264 266 271 274 278
269 271 273 276 278 281 282 283 283 283 283 282 282 283 283 280 278 280 279 277 279 279 275 273 271 269 267 267 265 264 263 262 260 259 262 263 263 261 263 266 267 271 271
272 273 275 276 276 277 278 279 279 280 281 282 283 282 281 280 280 279 279 278 277 275 273 272 271 270 269 268 267 266 265 265 264 260 257 260 262 261 261 261 262 265 265
271 272 272 272 275 277 278 280 281 283 283 283 283 285 285 283 280 277 274 273 271 271 270 270 269 268 269 271 270 269 269 268 266 263 259 257 258 258 257 258 259 260 256
270 272 274 276 277 279 280 280 281 283 283 285 283 281 280 279 279 277 275 274 271 268 267 267 269 270 270 272 272 272 268 267 265 264 260 259 257 255 254 254 254 257 251
273 275 277 278 279 279 279 281 282 282 282 280 279 280 278 277 278 277 275 273 270 269 268 269 271 271 271 270 268 268 272 274 275 272 264 259 257 255 252 250 250 250 245
273 274 276 277 276 276 278 281 282 280 279 279 278 277 276 276 276 277 278 276 275 274 273 271 270 268 267 270 273 275 277 276 277 274 272 266 256 252 248 246 244 241 237
274 275 276 275 276 278 281 279 280 280 278 278 278 277 276 276 276 276 275 276 276 276 274 271 271 273 274 274 274 274 273 275 277 274 270 263 257 252 244 239 237 231 225
273 275 275 275 278 278 279 280 278 279 280 280 279 278 276 276 276 276 275 276 276 276 275 275 273 275 276 275 270 272 272 275 277 274 264 251 241 242 237 232 221 221 228
274 275 276 275 279 279 277 278 280 281 282 281 280 279 278 276 275 274 273 273 274 273 274 274 273 271 269 270 270 272 273 275 267 252 247 238 230 227 230 222 216 217 224
273 274 278 277 275 277 280 283 283 282 282 280 278 277 276 276 275 275 275 273 271 271 270 269 266 263 262 263 268 273 274 265 251 251 247 241 227 227 218 214 213 220 226
274 274 276 283 287 285 283 283 283 282 283 283 282 281 281 280 281 278 275 272 270 266 265 262 258 258 260 265 268 274 277 267 260 250 238 226 217 210 211 215 213 218 229
285 290 291 293 292 290 289 288 287 284 283 283 283 283 281 280 277 276 274 272 269 263 258 255 252 254 260 264 269 272 271 269 247 227 210 200 205 207 208 220 216 228 238
292 299 302 303 301 298 293 288 286 286 288 286 285 282 279 277 276 274 272 271 268 261 253 247 244 245 253 256 258 254 272 280 229 207 203 202 209 213 217 219 227 234 244
301 309 310 314 307 300 296 294 292 291 287 285 282 280 278 276 274 273 272 266 257 248 242 238 234 237 245 242 241 246 245 256 198 185 182 189 194 200 209 219 231 237 246
323 325 323 316 308 303 299 298 297 293 287 283 280 278 276 275 273 267 260 252 241 234 230 227 235 231 227 230 230 237 215 222 203 196 196 194 200 209 221 229 239 244 255
340 335 328 318 311 306 306 306 303 296 288 283 280 278 276 275 266 253 242 236 230 223 227 227 225 218 212 217 227 232 227 213 202 202 213 212 219 227 236 240 255 264 271
348 341 331 319 315 312 312 311 306 302 294 287 282 278 277 267 240 228 223 222 224 221 219 220 214 209 209 211 223 227 217 212 213 217 221 228 239 242 245 252 292 294 285
355 344 335 329 324 320 319 315 313 307 298 290 285 281 273 247 223 214 220 215 214 215 213 208 203 205 208 212 218 217 218 218 222 229 233 243 241 240 276 292 299 301 272
2 351 344 339 337 333 332 330 331 330 321 305 298 290 272 229 220 215 207 202 202 206 202 198 200 204 210 216 223 221 218 221 225 229 238 243 260 263 291 300 300 276 209
10 4 357 352 350 351 349 351 359 359 357 352 343 322 287 223 198 190 186 188 193 194 195 196 197 202 206 213 222 231 226 228 233 236 242 257 273 297 299 291 296 212 173
16 14 5 360 2 3 7 14 24 29 28 28 32 39 16 271 174 166 165 175 182 190 195 197 201 205 212 218 225 227 227 237 242 252 258 266 277 280 291 289 211 176 167
22 20 14 10 10 12 16 19 31 33 31 36 35 31 52 115 143 149 153 163 183 199 194 205 208 210 214 221 226 232 235 243 250 256 264 268 283 290 274 200 174 171 165
23 24 23 18 16 16 22 25 32 45 48 42 40 46 81 115 129 142 163 175 188 205 207 206 213 219 221 224 230 236 239 243 249 252 269 265 287 241 196 170 169 169 165
24 27 28 26 21 22 26 27 35 41 51 59 64 65 80 108 138 155 168 182 195 207 213 213 216 215 222 230 233 237 243 248 253 251 266 209 190 179 163 163 169 168 167
22 25 27 32 29 27 30 33 36 44 46 54 61 72 80 91 117 165 181 181 184 198 200 203 201 205 212 211 221 221 218 227 245 213 177 168 158 157 157 165 169 171 169
Height
10646 10644 10642 10639 10637 10635 10634 10631 10628 10626 10623 10619 10619 10624 10626 10625 10622 10623 10622 10622 10625 10625 10625 10625 10624 10625 10626 10627 10627 10630 10633 10639 10649 10644 10642 10643 10655 10660 10663 10662 10666 10665 10668
10631 10631 10629 10627 10623 10620 10617 10613 10609 10606 10602 10596 10596 10598 10601 10605 10603 10600 10599 10599 10598 10597 10597 10599 10599 10599 10600 10600 10601 10602 10606 10608 10618 10627 10624 10621 10628 10638 10642 10648 10654 10652 10652
10615 10614 10612 10609 10606 10602 10597 10593 10589 10586 10583 10579 10573 10571 10572 10575 10578 10578 10574 10569 10571 10571 10569 10569 10570 10572 10572 10570 10571 10574 10576 10581 10587 10598 10603 10598 10602 10613 10621 10628 10636 10639 10639
10595 10593 10590 10588 10585 10581 10578 10572 10567 10563 10558 10553 10548 10545 10540 10538 10541 10542 10541 10540 10540 10542 10542 10543 10542 10542 10542 10542 10543 10546 10546 10551 10557 10565 10572 10573 10577 10582 10595 10604 10616 10619 10622
10573 10572 10569 10566 10562 10559 10554 10548 10543 10538 10532 10527 10522 10516 10511 10505 10503 10506 10508 10509 10512 10515 10516 10516 10516 10518 10515 10512 10517 10520 10523 10527 10530 10534 10542 10546 10549 10557 10567 10576 10591 10600 10606
10550 10547 10545 10541 10538 10533 10527 10523 10519 10513 10506 10499 10493 10488 10486 10481 10476 10474 10477 10484 10486 10489 10492 10493 10493 10494 10493 10490 10496 10500 10498 10500 10505 10505 10513 10521 10524 10528 10538 10555 10569 10581 10586
10524 10522 10521 10518 10514 10507 10503 10498 10493 10484 10479 10473 10468 10464 10462 10459 10455 10453 10453 10459 10462 10464 10466 10470 10471 10469 10471 10474 10474 10477 10477 10475 10480 10479 10486 10492 10497 10502 10513 10528 10547 10560 10571
10496 10495 10493 10490 10487 10483 10476 10470 10464 10460 10455 10451 10447 10445 10443 10439 10436 10435 10434 10437 10440 10441 10441 10445 10450 10451 10451 10454 10454 10454 10453 10452 10456 10456 10462 10465 10474 10481 10495 10508 10528 10542 10554
10467 10468 10464 10461 10460 10456 10452 10448 10443 10441 10436 10433 10429 10425 10424 10422 10419 10416 10414 10416 10420 10419 10417 10422 10426 10430 10428 10427 10426 10430 10430 10435 10436 10437 10437 10443 10452 10462 10477 10492 10509 10522 10535
10444 10442 10441 10440 10439 10437 10432 10429 10426 10422 10419 10414 10410 10407 10404 10401 10396 10395 10393 10395 10395 10392 10391 10399 10403 10406 10403 10401 10403 10406 10411 10416 10419 10417 10419 10426 10434 10445 10460 10479 10498 10506 10522
10428 10427 10427 10427 10425 10422 10418 10414 10410 10406 10401 10395 10391 10385 10380 10376 10374 10370 10368 10369 10369 10368 10370 10375 10378 10378 10379 10382 10385 10389 10394 10396 10401 10402 10406 10413 10422 10435 10450 10468 10487 10500 10512
10419 10419 10418 10415 10412 10409 10406 10400 10393 10386 10379 10371 10365 10358 10351 10346 10345 10342 10340 10340 10342 10344 10350 10354 10357 10358 10363 10369 10374 10376 10381 10384 10385 10393 10400 10407 10419 10430 10447 10462 10476 10491 10501
10412 10411 10408 10405 10400 10394 10388 10379 10371 10362 10355 10346 10338 10331 10324 10322 10319 10318 10317 10318 10322 10326 10330 10335 10339 10345 10349 10359 10362 10366 10373 10376 10376 10385 10394 10402 10415 10430 10445 10453 10472 10484 10491
10406 10403 10398 10392 10384 10376 10367 10358 10348 10338 10330 10320 10312 10307 10302 10299 10298 10298 10298 10300 10304 10308 10311 10317 10325 10333 10341 10349 10355 10363 10370 10371 10376 10385 10393 10404 10419 10430 10443 10456 10467 10476 10484
10399 10393 10387 10377 10366 10355 10343 10332 10323 10314 10306 10297 10291 10286 10283 10282 10282 10283 10282 10285 10289 10293 10298 10306 10315 10325 10332 10341 10351 10358 10368 10373 10379 10387 10398 10410 10419 10432 10443 10453 10462 10470 10477
10391 10382 10372 10361 10348 10334 10321 10308 10298 10292 10283 10278 10273 10270 10268 10268 10269 10269 10270 10273 10279 10285 10291 10300 10308 10318 10325 10335 10346 10354 10367 10376 10384 10392 10401 10411 10421 10431 10439 10448 10458 10463 10469
10381 10371 10358 10344 10329 10314 10299 10287 10277 10271 10265 10261 10258 10255 10255 10257 10258 10258 10262 10266 10272 10281 10287 10292 10301 10311 10321 10332 10344 10354 10365 10374 10382 10390 10399 10409 10418 10427 10436 10444 10451 10455 10458
10371 10359 10345 10328 10312 10295 10282 10271 10262 10256 10251 10247 10245 10245 10246 10248 10249 10251 10256 10261 10266 10274 10280 10286 10296 10308 10319 10331 10341 10352 10361 10370 10380 10388 10396 10405 10414 10422 10428 10436 10440 10443 10444
10363 10349 10331 10314 10297 10282 10270 10260 10252 10245 10241 10238 10237 10237 10239 10241 10242 10247 10250 10255 10262 10268 10275 10283 10295 10306 10318 10329 10339 10348 10358 10368 10377 10384 10393 10402 10408 10415 10421 10427 10430 10434 10432
10355 10339 10322 10304 10287 10273 10262 10253 10245 10240 10236 10234 10233 10233 10235 10237 10239 10243 10247 10252 10258 10264 10272 10282 10294 10306 10317 10328 10337 10347 10355 10365 10373 10383 10390 10397 10401 10409 10416 10420 10423 10424 10428
10348 10331 10313 10296 10280 10268 10258 10250 10243 10237 10234 10233 10232 10232 10233 10235 10237 10240 10245 10252 10258 10265 10273 10283 10294 10305 10318 10326 10335 10344 10354 10363 10372 10378 10384 10390 10395 10400 10406 10412 10415 10417 10424
10346 10328 10312 10296 10280 10267 10258 10251 10245 10239 10236 10234 10234 10234 10234 10235 10238 10241 10245 10252 10260 10268 10276 10285 10294 10305 10314 10324 10333 10343 10352 10360 10368 10373 10378 10384 10389 10395 10399 10400 10403 10413 10422
10345 10329 10313 10297 10282 10270 10261 10254 10248 10243 10240 10238 10237 10236 10236 10238 10242 10244 10249 10255 10261 10268 10279 10286 10296 10304 10314 10321 10330 10340 10350 10358 10365 10369 10375 10381 10387 10388 10388 10394 10404 10415 10425
10345 10332 10316 10301 10287 10275 10266 10260 10254 10249 10246 10243 10241 10241 10241 10242 10244 10247 10252 10258 10264 10269 10276 10285 10295 10303 10311 10320 10329 10337 10344 10353 10359 10365 10371 10376 10379 10380 10384 10393 10406 10418 10428
10348 10336 10322 10308 10294 10282 10272 10265 10260 10255 10252 10251 10249 10248 10248 10250 10251 10254 10258 10262 10265 10270 10275 10281 10289 10297 10305 10315 10324 10333 10340 10348 10355 10360 10367 10369 10373 10378 10385 10397 10409 10421 10430
10350 10341 10330 10316 10302 10290 10280 10272 10267 10263 10259 10255 10254 10255 10255 10255 10257 10259 10261 10265 10267 10269 10274 10280 10287 10294 10301 10309 10317 10324 10333 10341 10348 10359 10361 10367 10374 10383 10391 10402 10412 10423 10435